Location: Goettingen
(51.5300°N, 9.9433°E)
Time: 00:43:38
(UTC+02:00)

ISS - Pass Details

Date: 24 May 2017
Orbit: 402 x 408 km, 51.6° (Epoch: 30 May)

Event Time Altitude Azimuth Distance (km) Brightness Sun altitude
Rises 00:19:21 0° 247° (WSW) 2,329 -0.1 -16.6°
Reaches altitude 10° 00:21:27 10° 244° (WSW) 1,469 -1.1 -16.7°
Maximum altitude 00:24:42 64° 163° (SSE) 455 -3.9 -16.8°
Drops below altitude 10° 00:27:58 10° 81° (E) 1,469 -1.0 -16.9°
Sets 00:30:04 0° 78° (ENE) 2,330 0.0 -17.0°
